Weather observations for the past three days for
Suffolk, Suffolk Municipal Airport
Imperial (Metric)
Date Time (edt) Wind (mph) Vis. (mi.) Weather Sky Cond. Temperature (ºF) Relative Humidity Wind Chill (°F) Heat Index (°F) Pressure Precipitation (in)
Air Dwpt 6 hour altimeter (in) sea level (mb) 1 hr 3 hr 6 hr
Max. Min.
23 02:15 SW 5 10.00 Partly Cloudy SCT005 74.7 74.3 99% 30.05 0.0
23 01:55 SW 5 10.00 Fair CLR 74.5 73.8 76.1 74.5 98% 30.04 0.0 0.05
23 01:35 SW 7 10.00 Fair CLR 74.7 73.8 97% 30.04 0.0
23 01:15 SW 6 10.00 Partly Cloudy SCT120 74.7 73.4 96% 30.04 0.0
23 00:55 SW 5 10.00 Fair CLR 74.7 73.6 96% 30.04 0.0
23 00:35 S 7 10.00 Fair CLR 74.7 73.6 96% 30.04 0.0
23 00:15 S 7 10.00 Fair CLR 74.7 73.8 97% 30.04 0.0
22 23:35 SW 9 10.00 Partly Cloudy SCT006 SCT031 SCT043 74.8 74.5 99% 30.05 0.0
22 23:15 SW 9 10.00 Partly Cloudy SCT006 75.4 75.2 99% 73 30.05 0.0
22 22:55 SW 9 10.00 Fair CLR 75.6 75.6 100% 74 30.05 0.0 0.04
22 22:35 SW 7 10.00 Fair CLR 76.1 76.1 100% 75 30.05 0.0
22 22:15 SW 7 10.00 Fair CLR 76.1 76.1 100% 75 30.04 0.0
22 21:55 S 3 10.00 Partly Cloudy SCT008 75.6 75.6 100% 74 30.04 0.0
22 21:35 Calm 10.00 Partly Cloudy SCT006 75.4 75.4 100% 73 30.04 0.0
22 21:15 Calm 10.00 Mostly Cloudy BKN006 BKN013 75.2 75.2 100% 73 30.02 0.0
22 20:55 Calm 10.00 Mostly Cloudy SCT004 BKN013 BKN028 75.2 75.2 100% 73 30.01 0.0 0.04
22 20:35 Calm 10.00 Light Rain SCT016 SCT025 SCT110 75.6 75.2 99% 74 30 0.0 0.04
22 20:15 SW 3 7.00 Rain SCT018 SCT025 BKN110 75.7 75.2 98% 74 30 0.0 0.02
22 19:55 SW 3 10.00 Light Rain SCT027 SCT075 SCT080 75.6 74.8 86.7 75.2 98% 74 30 0.0 0.07 0.64
22 19:35 SW 6 10.00 Light Rain SCT031 BKN070 OVC110 75.6 74.3 96% 74 30.01 0.0 0.07
22 19:15 SW 6 7.00 Rain SCT033 SCT070 BKN110 75.6 74.7 97% 74 30.01 0.0 0.04
22 18:55 W 6 10.00 Heavy Rain BKN110 75.7 75 98% 74 30.02 0.0 0.11
22 18:35 SW 5 4.00 Thunderstorm Heavy Rain SCT030 SCT065 BKN110 75.6 74.8 98% 74 30.02 0.0 0.07
22 18:15 SW 5 10.00 Rain SCT027 SCT032 SCT050 75.4 74.5 97% 74 30.01 0.0
22 17:55 W 6 10.00 Thunderstorm Light Rain SCT060 SCT075 BKN100 75.4 74.7 98% 74 30.01 0.0 0.44
22 17:35 SW 7 7.00 Thunderstorm Light Rain SCT027 BKN070 OVC100 75.2 74.3 97% 73 30.01 0.0 0.42
22 17:15 SW 14 G 24 4.00 Thunderstorm Heavy Rain SCT010 SCT023 BKN031 75.9 74.5 95% 75 30 0.0 0.32
22 16:55 SW 22 G 37 10.00 Thunderstorm Light Rain and Breezy SCT023 BKN030 OVC065 83.7 76.6 79% 93 30.01 0.0
22 16:35 S 7 10.00 Overcast BKN029 BKN045 OVC065 86.4 76.1 72% 97 29.98 0.0
22 16:15 S 7 10.00 Overcast BKN031 BKN043 OVC100 86 75 70% 95 29.99 0.0
22 15:55 SW 8 10.00 Overcast SCT027 BKN035 OVC050 85.5 74.7 70% 94 30 0.0
22 15:35 S 9 10.00 Overcast BKN027 OVC037 86.2 75 69% 95 30 0.0
22 15:15 S 10 10.00 Mostly Cloudy BKN025 BKN030 BKN035 86 75.2 70% 95 30.01 0.0
22 14:55 SW 9 10.00 Partly Cloudy SCT025 SCT032 86.5 75 69% 96 30.02 0.0
22 14:35 S 6 10.00 Mostly Cloudy BKN025 BKN032 84.9 74.8 72% 93 30.02 0.0
22 14:15 SW 7 10.00 Mostly Cloudy BKN019 BKN027 BKN032 84.4 74.7 73% 92 30.04 0.0
22 13:55 S 8 10.00 Overcast BKN019 BKN080 OVC120 83.1 75.2 83.3 75.2 77% 91 30.05 0.0
22 13:35 S 8 10.00 Overcast BKN019 BKN050 OVC080 81.7 74.8 80% 88 30.05 0.0
22 13:15 SW 7 10.00 Light Rain SCT020 BKN027 OVC070 81.5 75 81% 88 30.06 0.0
22 12:55 SW 5 10.00 Overcast BKN022 BKN027 OVC034 81.3 74.1 79% 87 30.06 0.0
22 12:35 SW 5 10.00 Overcast SCT020 BKN026 OVC090 81.5 73.8 77% 87 30.07 0.0
22 12:15 SW 7 10.00 Overcast SCT016 SCT022 OVC090 81.9 73.6 76% 88 30.07 0.0
22 11:55 S 5 10.00 Overcast SCT016 BKN090 OVC120 80.8 74.3 81% 86 30.08 0.0
22 11:35 S 3 10.00 Overcast SCT014 SCT026 OVC090 80.1 73.9 82% 85 30.08 0.0
22 11:15 S 3 10.00 Light Rain SCT011 SCT028 OVC100 79.7 73.4 81% 84 30.08 0.0
22 10:55 S 5 10.00 Overcast SCT009 BKN050 OVC090 79.7 73.9 83% 84 30.08 0.0
22 10:35 SW 5 10.00 Overcast SCT007 BKN037 OVC090 78.8 74.3 86% 82 30.08 0.0
22 10:15 S 5 10.00 Mostly Cloudy BKN007 BKN065 77.9 74.7 90% 80 30.08 0.0
22 09:55 Calm 10.00 Partly Cloudy SCT005 SCT049 SCT065 77 74.8 93% 78 30.07 0.0
22 09:35 S 5 10.00 Partly Cloudy SCT005 SCT038 SCT050 76.3 74.8 95% 76 30.09 0.0
22 09:15 S 5 10.00 Light Rain SCT045 SCT050 BKN075 75.7 74.8 97% 75 30.09 0.0
22 08:55 SE 5 10.00 Light Rain SCT042 BKN050 OVC075 75.9 75.2 98% 75 30.08 0.0
22 08:35 S 3 10.00 Mostly Cloudy SCT050 BKN070 BKN110 75.6 74.5 96% 74 30.08 0.0
22 08:15 Calm 10.00 Mostly Cloudy SCT070 BKN090 BKN120 75.2 74.5 98% 73 30.07 0.0
22 07:55 E 3 10.00 Mostly Cloudy SCT070 BKN100 75.2 74.5 75.2 74.3 98% 73 30.05 0.0 0.01 0.03
22 07:35 Calm 10.00 Light Rain SCT010 SCT050 OVC110 74.7 73.9 98% 30.06 0.0 0.01
22 07:15 Calm 10.00 Light Drizzle SCT005 BKN041 OVC120 75 74.5 98% 73 30.06 0.0
22 06:55 S 3 10.00 Mostly Cloudy SCT005 BKN043 BKN050 74.8 74.1 98% 30.06 0.0
22 06:35 Calm 10.00 Light Rain SCT007 SCT046 SCT055 74.8 74.3 98% 30.05 0.0
22 06:15 W 3 10.00 Light Rain SCT048 BKN060 BKN075 75.2 74.5 98% 73 30.06 0.0
22 05:55 W 3 10.00 Rain SCT055 SCT070 SCT090 75.2 74.8 99% 73 30.05 0.0 0.02
22 05:35 SW 3 7.00 Rain SCT037 SCT050 SCT065 75 75 100% 72 30.05 0.0 0.01
22 05:15 Calm 10.00 Overcast SCT003 BKN038 OVC090 74.8 74.7 99% 30.04 0.0
22 04:55 Calm 10.00 Overcast SCT003 BKN075 OVC100 74.7 74.7 100% 30.04 0.0
22 04:35 Calm 10.00 Partly Cloudy SCT100 74.7 74.5 99% 30.04 0.0
22 04:15 SE 5 10.00 Partly Cloudy SCT055 74.5 74.3 99% 30.04 0.0
22 03:55 Calm 10.00 Partly Cloudy SCT055 74.3 73.8 98% 30.05 0.0
22 03:35 Calm 10.00 Fair CLR 74.5 73.8 98% 30.05 0.0
22 03:15 Calm 10.00 Fair CLR 74.7 73.9 98% 30.06 0.0
22 02:55 S 3 10.00 Fair CLR 74.5 73.8 98% 30.06 0.0
22 02:35 Calm 10.00 Fair CLR 74.3 73.6 98% 30.05 0.0
22 02:15 Calm 10.00 Fair CLR 74.5 73.4 96% 30.06 0.0
22 01:55 Calm 10.00 Fair CLR 74.7 73.4 81.1 74.3 96% 30.07 0.0
22 01:35 Calm 10.00 Fair CLR 74.5 72.9 95% 30.08 0.0
22 01:15 Calm 10.00 Fair CLR 74.7 72.7 94% 30.08 0.0
22 00:55 E 3 10.00 Fair CLR 74.5 72.5 94% 30.08 0.0
22 00:35 SE 3 10.00 Fair CLR 74.5 72.5 94% 30.08 0.0
22 00:15 E 3 10.00 Fair CLR 74.7 72.5 93% 30.09 0.0
21 23:55 SE 3 10.00 Fair CLR 74.7 72.5 93% 30.08 0.0
21 23:35 E 3 10.00 Fair CLR 74.7 72.5 93% 30.08 0.0
21 23:15 E 3 10.00 Fair CLR 75.2 72.5 91% 74 30.09 0.0
21 22:55 E 3 10.00 Fair CLR 75.7 72.5 90% 76 30.09 0.0
21 22:35 E 3 10.00 Fair CLR 76.1 72.3 88% 76 30.09 0.0
21 22:15 E 3 10.00 Fair CLR 76.3 72.1 87% 77 30.09 0.0
21 21:55 E 5 10.00 Fair CLR 76.8 71.8 85% 78 30.08 0.0
21 21:35 E 3 10.00 Fair CLR 77.4 71.6 83% 79 30.08 0.0
21 21:15 Calm 10.00 Fair CLR 78.3 71.6 80% 81 30.07 0.0
21 20:55 E 3 10.00 Fair CLR 78.8 71.8 79% 82 30.06 0.0
21 20:35 E 5 10.00 Fair CLR 79.5 72.9 80% 83 30.05 0.0
21 20:15 Calm 10.00 Fair CLR 80.4 73.4 79% 85 30.04 0.0
21 19:55 SE 3 10.00 Fair CLR 81.3 73.4 87.3 81.3 77% 87 30.04 0.0
21 19:35 SE 5 10.00 Fair CLR 82.4 73.6 75% 88 30.04 0.0
21 19:15 SE 5 10.00 Fair CLR 83.7 73.9 73% 91 30.03 0.0
21 18:55 SE 5 10.00 Fair CLR 84.6 73.2 69% 91 30.02 0.0
21 18:15 S 3 10.00 Fair CLR 86 69.3 57% 90 30.03 0.0
21 16:55 SE 7 10.00 Partly Cloudy SCT080 84.4 73.2 69% 91 30.04 0.0
21 16:35 SE 8 10.00 Partly Cloudy SCT090 SCT100 84.2 73 69% 91 30.04 0.0
21 16:15 E 3 10.00 Mostly Cloudy SCT065 BKN090 83.5 72.1 69% 89 30.05 0.0
21 15:35 E 8 10.00 Mostly Cloudy BKN070 BKN100 84.9 73.9 70% 92 30.05 0.0
21 15:15 SE 3 10.00 Partly Cloudy SCT035 SCT060 SCT100 86.9 71.1 59% 93 30.05 0.0
21 14:55 E 5 10.00 Mostly Cloudy BKN033 86.2 71.4 62% 92 30.06 0.0
21 14:35 W 3 10.00 Partly Cloudy SCT033 SCT042 87.1 72.1 61% 94 30.06 0.0
21 14:15 Calm 10.00 Mostly Cloudy SCT031 BKN042 85.3 71.4 63% 91 30.07 0.0
21 13:55 SW 3 10.00 Partly Cloudy SCT029 SCT035 85.8 72 86.2 73.4 63% 92 30.07 0.0
21 13:35 Calm 10.00 Fair CLR 84.7 71.4 64% 90 30.07 0.0
21 13:15 NW 6 10.00 Partly Cloudy SCT029 SCT110 83.8 72.1 68% 90 30.07 0.0
21 12:55 Calm 10.00 Mostly Cloudy BKN029 83.5 72.3 69% 89 30.08 0.0
21 12:35 Calm 10.00 Mostly Cloudy SCT027 SCT033 BKN120 84 72.3 68% 90 30.08 0.0
21 12:15 NE 3 10.00 Overcast SCT025 OVC120 84.2 72.1 67% 90 30.08 0.0
21 11:55 Calm 10.00 Overcast SCT023 OVC110 82.9 71.6 69% 88 30.09 0.0
21 11:35 NE 3 10.00 Mostly Cloudy SCT021 BKN110 83.3 71.4 68% 88 30.08 0.0
21 11:15 Calm 10.00 Partly Cloudy SCT020 SCT120 82.2 72 71% 87 30.08 0.0
21 10:55 Calm 10.00 Mostly Cloudy SCT020 BKN120 81.3 71.4 72% 86 30.08 0.0
21 10:35 Calm 10.00 Partly Cloudy SCT018 80.2 71.4 75% 84 30.08 0.0
21 10:15 Calm 10.00 Partly Cloudy SCT013 79.9 72.5 78% 84 30.08 0.0
21 09:55 Calm 10.00 Partly Cloudy SCT010 SCT027 SCT075 77.9 73.2 86% 80 30.09 0.0
21 09:35 NW 5 10.00 Partly Cloudy SCT100 77.4 72.9 86% 79 30.09 0.0
21 09:15 Calm 10.00 Partly Cloudy SCT006 76.5 72.7 88% 77 30.08 0.0
21 08:55 Calm 10.00 Mostly Cloudy BKN004 75.4 73.4 94% 74 30.09 0.0
21 08:35 W 3 10.00 Overcast OVC004 73.9 73.4 98% 30.08 0.0
21 08:15 Calm 10.00 Overcast OVC004 73.6 73.4 99% 30.08 0.0
21 07:55 W 5 10.00 Overcast OVC002 73.4 73.4 74.7 70.9 100% 30.08 0.0
21 07:35 SW 3 7.00 Overcast OVC002 73 73 100% 30.08 0.0
21 07:15 SW 3 4.00 Fog/Mist OVC002 72.9 72.9 100% 30.07 0.0
21 06:55 Calm 1.25 Fog/Mist OVC002 72.5 72.5 100% 30.06 0.0
21 06:35 S 3 1.00 Fog/Mist OVC002 72.1 72.1 100% 30.06 0.0
21 06:15 S 5 5.00 Fog/Mist SCT002 SCT120 70.9 70.9 100% 30.06 0.0
21 05:55 Calm 7.00 Fair CLR 71.6 71.6 100% 30.05 0.0
21 05:35 Calm 7.00 Fair CLR 72 72 100% 30.04 0.0
21 05:15 Calm 10.00 Fair CLR 72.5 72.5 100% 30.04 0.0
21 04:55 Calm 10.00 Fair CLR 72.5 72.3 99% 30.04 0.0
21 04:35 Calm 10.00 Fair CLR 73 72.7 99% 30.03 0.0
21 04:15 Calm 10.00 Fair CLR 73.4 72.7 98% 30.03 0.0
21 03:55 W 3 10.00 Partly Cloudy SCT024 73.6 72.9 98% 30.03 0.0
21 03:35 W 5 10.00 Overcast SCT006 SCT010 OVC024 73.9 73 97% 30.03 0.0
21 03:15 NW 5 10.00 Overcast BKN008 BKN016 OVC024 74.3 73.8 98% 30.04 0.0
21 02:55 W 5 10.00 Overcast BKN008 BKN013 OVC021 74.5 74.3 99% 30.04 0.0
21 02:35 W 3 10.00 Overcast BKN008 BKN017 OVC022 74.7 74.5 99% 30.04 0.0
21 02:15 W 5 10.00 Overcast BKN010 OVC019 74.5 74.5 100% 30.04 0.0
21 01:55 W 3 10.00 Overcast SCT004 BKN012 OVC019 74.7 74.7 77 74.7 100% 30.04 0.0 0.01
21 01:35 W 5 10.00 Overcast SCT004 BKN009 OVC014 74.7 74.7 100% 30.04 0.0
21 01:15 W 3 10.00 Mostly Cloudy BKN009 74.7 74.5 99% 30.04 0.0
21 00:55 SW 3 10.00 Mostly Cloudy BKN011 74.7 74.5 99% 30.04 0.0
21 00:35 Calm 10.00 Overcast OVC009 75.2 74.8 99% 73 30.04 0.0
20 23:55 W 3 10.00 Mostly Cloudy BKN007 75.2 75.2 100% 73 30.03 0.0
20 23:35 Calm 10.00 Partly Cloudy SCT007 SCT018 75.2 74.8 99% 73 30.03 0.0
20 23:15 W 3 10.00 Thunderstorm in Vicinity SCT007 SCT090 75.4 74.8 98% 73 30.04 0.0
20 22:55 Calm 10.00 Partly Cloudy SCT090 SCT110 75.4 74.7 98% 74 30.04 0.0 0.01 0.01
20 22:35 W 3 10.00 Light Rain SCT110 75.7 74.8 97% 75 30.04 0.0 0.01
20 22:15 W 3 10.00 Light Rain SCT070 SCT085 75.7 74.5 96% 75 30.05 0.0
20 21:55 W 5 10.00 Light Rain BKN070 BKN085 BKN120 76.1 74.5 95% 76 30.06 0.0
20 21:35 W 5 10.00 Partly Cloudy SCT070 SCT120 76.1 74.5 95% 76 30.06 0.0
20 21:15 W 3 10.00 Fair CLR 76.1 74.7 95% 76 30.05 0.0
20 20:55 W 3 10.00 Fair CLR 76.1 74.5 95% 76 30.03 0.0
20 20:35 W 3 10.00 Fair CLR 76.1 74.3 94% 76 30.03 0.0
20 20:15 SW 3 10.00 Fair CLR 76.6 73.9 91% 77 30.03 0.0
20 19:55 W 3 10.00 Mostly Cloudy BKN011 77 74.3 87.8 76.3 91% 78 30.03 0.0 0.06
20 19:35 W 6 10.00 Overcast OVC011 77.4 74.3 90% 79 30.04 0.0
20 19:15 NW 6 10.00 Overcast BKN011 BKN037 OVC070 77.7 74.1 89% 80 30.03 0.0
20 18:55 W 6 10.00 Overcast SCT011 BKN039 OVC046 77.9 74.7 90% 80 30.03 0.0
20 18:35 NW 7 10.00 Overcast SCT009 BKN042 OVC050 77 74.8 93% 78 30.02 0.0
20 18:15 NW 6 10.00 Overcast SCT023 BKN033 OVC048 76.8 74.8 94% 78 30.02 0.0
20 17:55 W 5 5.00 Thunderstorm Heavy Rain in Vicinity SCT010 BKN022 OVC038 76.3 73.9 93% 76 30.02 0.0 0.05
20 17:35 NW 20 G 24 10.00 Thunderstorm Light Rain in Vicinity SCT015 BKN046 OVC075 83.7 73.9 73% 91 30.02 0.0
20 17:15 SW 10 10.00 Thunderstorm Light Rain in Vicinity SCT035 BKN042 OVC090 84.2 73.9 71% 91 30.01 0.0
20 16:55 SW 10 10.00 Thunderstorm in Vicinity SCT034 SCT041 BKN065 86.4 73.4 65% 94 30.01 0.0
20 16:35 SW 13 10.00 Mostly Cloudy BKN034 BKN047 BKN070 87.4 73.9 64% 96 30.01 0.0
20 16:15 SW 10 G 20 10.00 Mostly Cloudy BKN034 BKN043 BKN050 87.1 73.2 64% 95 30.01 0.0
20 15:55 S 9 10.00 Mostly Cloudy BKN034 BKN041 86.7 73 64% 94 30.01 0.0
20 15:35 S 12 10.00 Mostly Cloudy SCT030 BKN037 87.1 73 63% 95 30.01 0.0
20 15:15 S 12 G 17 10.00 Mostly Cloudy BKN030 BKN045 BKN055 87.1 74.1 65% 96 30.03 0.0
20 14:55 S 7 10.00 Mostly Cloudy SCT026 SCT048 BKN085 85.5 74.7 70% 94 30.04 0.0
20 14:35 SW 9 10.00 Mostly Cloudy SCT026 SCT035 BKN042 85.8 73.9 68% 94 30.05 0.0
20 14:15 SW 7 10.00 Partly Cloudy SCT026 SCT039 SCT055 85.6 74.8 70% 94 30.05 0.0
20 13:55 SW 13 G 16 10.00 Mostly Cloudy SCT021 BKN027 BKN035 85.5 74.3 85.5 75.2 69% 94 30.07 0.0
20 13:35 SW 6 10.00 Overcast SCT020 BKN026 OVC034 84 74.1 72% 91 30.08 0.0
20 13:15 S 6 10.00 Overcast BKN018 BKN090 OVC120 81.9 74.1 77% 88 30.08 0.0
20 12:55 SW 7 10.00 Overcast BKN016 OVC021 80.4 73.8 80% 85 30.09 0.0
20 12:35 SW 8 10.00 Overcast OVC014 80.6 74.3 81% 86 30.09 0.0
20 12:15 SW 5 10.00 Overcast OVC016 80.1 73.8 81% 85 30.09 0.0
20 11:55 SW 8 10.00 Overcast OVC016 80.4 73.9 81% 85 30.09 0.0
20 11:35 SW 7 10.00 Overcast OVC014 79.9 74.1 83% 84 30.09 0.0
20 11:15 SW 7 10.00 Overcast OVC012 79.3 73.9 84% 83 30.1 0.0
20 10:55 SW 8 10.00 Overcast OVC012 79.3 73.9 84% 83 30.1 0.0
20 10:35 S 10 10.00 Overcast OVC012 79 74.1 85% 83 30.1 0.0
20 10:15 S 8 10.00 Overcast OVC012 79.2 73.8 84% 83 30.1 0.0
20 09:55 SW 6 10.00 Overcast OVC014 78.4 73.9 86% 81 30.1 0.0
20 09:35 SW 3 10.00 Overcast BKN009 OVC014 78.1 74.7 89% 81 30.1 0.0
20 09:15 S 3 10.00 Mostly Cloudy BKN006 BKN010 BKN120 77 75.6 95% 78 30.11 0.0
20 08:55 S 3 10.00 Overcast OVC004 76.1 75.6 98% 75 30.11 0.0
20 08:35 Calm 10.00 Overcast OVC004 75.6 75.4 99% 74 30.12 0.0
20 08:15 Calm 10.00 Overcast OVC004 75.6 75.4 99% 74 30.11 0.0
20 07:55 Calm 0.00 Overcast OVC004 75.2 75.2 75.4 73.4 100% 73 30.1 0.0
20 07:35 Calm 5.00 Fog/Mist OVC004 75.2 74.8 99% 73 30.1 0.0
20 07:15 Calm 10.00 Overcast OVC004 75.2 75 99% 73 30.1 0.0
20 06:55 Calm 7.00 Overcast OVC006 74.8 74.7 99% 30.09 0.0
20 06:35 Calm 10.00 Overcast OVC006 74.3 74.3 100% 30.09 0.0
20 06:15 Calm 10.00 Overcast OVC008 73.8 73.8 100% 30.09 0.0
20 05:55 Calm 7.00 Overcast OVC008 73.8 73.8 100% 30.09 0.0
20 05:35 Calm 10.00 Mostly Cloudy BKN010 73.8 73.8 100% 30.09 0.0
20 05:15 Calm 7.00 Partly Cloudy SCT010 SCT033 73.6 73.6 100% 30.08 0.0
20 04:55 Calm 10.00 Overcast OVC010 73.9 73.9 100% 30.08 0.0
20 04:35 Calm 10.00 Mostly Cloudy BKN010 73.8 73.8 100% 30.07 0.0
20 04:15 Calm 10.00 Partly Cloudy SCT010 73.8 73.6 99% 30.08 0.0
20 03:55 Calm 10.00 Partly Cloudy SCT034 74.3 73.9 99% 30.08 0.0
20 03:35 Calm 10.00 Mostly Cloudy SCT015 SCT032 BKN044 74.3 73.9 99% 30.08 0.0
20 03:15 Calm 10.00 Overcast SCT015 SCT023 OVC042 74.7 74.3 99% 30.09 0.0
20 02:55 Calm 10.00 Overcast SCT015 BKN023 OVC044 74.7 74.3 99% 30.09 0.0
20 02:35 Calm 10.00 Mostly Cloudy SCT017 BKN030 BKN044 74.7 74.3 99% 30.09 0.0
Date Time (edt) Wind (mph) Vis. (mi.) Weather Sky Cond. Air Dwpt Max. Min. Relative Humidity Wind Chill (°F) Heat Index (°F) altimeter (in) sea level (mb) 1 hr 3 hr 6 hr
6 hour
Temperature (ºF) Pressure Precipitation (in)